Location: ???????
(55.9142°N, 37.8256°E)
Time: 09:03:37
(UTC+00:00)

Cosmos 1743 Rocket - Visible Passes

Search period start: 24 July 2024 00:00
Search period end: 03 August 2024 00:00
Orbit: 601 x 628 km, 82.6° (Epoch: 23 July)

Date Brightness Start Highest point End Pass type
(mag) Time Alt. Az. Time Alt. Az. Time Alt. Az.
24 Jul 5.3 23:41:16 10° SSE 23:45:04 28° E 23:48:51 10° NNE visible
25 Jul 4.6 23:56:43 10° SSE 00:00:55 44° E 00:05:08 10° NNE visible
26 Jul 6.3 22:38:28 10° E 22:39:55 11° ENE 22:41:21 10° ENE visible
27 Jul 3.8 00:12:27 10° S 00:16:52 71° E 00:21:16 10° NNE visible
27 Jul 5.9 22:52:40 10° SE 22:55:36 18° E 22:58:33 10° NE visible
28 Jul 3.6 00:28:26 10° SSW 00:32:52 74° WNW 00:37:18 10° N visible
28 Jul 5.3 23:07:40 10° SE 23:11:22 27° E 23:15:04 10° NNE visible
29 Jul 4.6 23:23:04 10° SSE 23:27:13 41° E 23:31:21 10° NNE visible
30 Jul 6.2 22:05:14 10° E 22:06:14 11° ENE 22:07:12 10° ENE visible
30 Jul 3.8 23:39:06 12° S 23:43:07 66° E 23:47:29 10° NNE visible
31 Jul 5.9 22:19:06 10° ESE 22:21:53 17° E 22:24:40 10° NE visible
31 Jul 3.6 23:55:13 13° SSW 23:59:07 79° WNW 00:03:31 10° N visible
01 Aug 5.3 22:34:15 11° SE 22:37:38 25° E 22:41:14 10° NNE visible
02 Aug 4.0 00:11:19 13° SSW 00:15:11 50° WNW 00:19:28 10° N visible
02 Aug 4.6 22:50:20 16° SSE 22:53:28 39° E 22:57:32 10° NNE visible
